This is the latest recevied weather packets stored in our database for station/object AE5HO. If no packets are shown the sender has not sent any weather packets the latest 10 day(s).
| Time | Temp. | Humidity | Pressure | Rain* | Wind** | Luminosity | Snow |
|---|---|---|---|---|---|---|---|
| 1778006385 | 28.89° C | 68% | 1005 hPa | 0 mm | - | 198 W/m² | - |
| 1778006083 | 28.89° C | 69% | 1005 hPa | 0 mm | - | 201 W/m² | - |
| 1778005779 | 28.89° C | 69% | 1005.3 hPa | 0 mm | - | 208 W/m² | - |
| 1778005476 | 28.33° C | 69% | 1005.1 hPa | 0 mm | - | 196 W/m² | - |
| 1778005172 | 28.89° C | 69% | 1005 hPa | 0 mm | - | 196 W/m² | - |
| 1778004870 | 28.33° C | 69% | 1005 hPa | 0 mm | - | 210 W/m² | - |
| 1778004567 | 28.33° C | 68% | 1005.3 hPa | 0 mm | - | 213 W/m² | - |
| 1778004263 | 28.89° C | 68% | 1005 hPa | 0 mm | - | 208 W/m² | - |
| 1778003960 | 28.89° C | 69% | 1005.2 hPa | 0 mm | - | 214 W/m² | - |
| 1778003656 | 28.89° C | 69% | 1005.1 hPa | 0 mm | - | 223 W/m² | - |
| 1778003352 | 28.33° C | 68% | 1005 hPa | 0 mm | - | 215 W/m² | - |
| 1778003050 | 28.33° C | 68% | 1004.9 hPa | 0 mm | - | 220 W/m² | - |
| 1778002746 | 28.89° C | 67% | 1005.2 hPa | 0 mm | - | 229 W/m² | - |
| 1778002442 | 28.33° C | 69% | 1005 hPa | 0 mm | - | 273 W/m² | - |
| 1778002140 | 28.33° C | 71% | 1005 hPa | 0 mm | - | 262 W/m² | - |
| 1778001838 | 27.78° C | 70% | 1005 hPa | 0 mm | - | 231 W/m² | - |
| 1778001537 | 28.33° C | 70% | 1005 hPa | 0 mm | - | 235 W/m² | - |
| 1778001234 | 28.89° C | 70% | 1005.2 hPa | 0 mm | - | 267 W/m² | - |
| 1778000930 | 28.33° C | 72% | 1005 hPa | 0 mm | - | 269 W/m² | - |
| 1778000628 | 28.33° C | 72% | 1005.3 hPa | 0 mm | - | 290 W/m² | - |
| 1778000323 | 27.78° C | 72% | 1005 hPa | 0 mm | - | 334 W/m² | - |
| 1778000019 | 27.22° C | 72% | 1005.3 hPa | 0 mm | - | 443 W/m² | - |
| 1777999715 | 27.22° C | 72% | 1005.2 hPa | 0 mm | - | 212 W/m² | - |
| 1777999411 | 27.22° C | 73% | 1005 hPa | 0 mm | - | 223 W/m² | - |
| 1777999110 | 27.22° C | 73% | 1005.1 hPa | 0 mm | - | 259 W/m² | - |
* Rain latest hour (hover to see other rain measurements)
** Current wind speed in m/s (hover to see current wind gust speed)